Skip Page Navigation
NASA JPL Caltech
NASA Logo - Jet Propulsion Laboratory + View the NASA Portal
+ Center for Near-Earth Object Studies
JPL Home Earth Solar System Stars & Galaxies Technology
JPL Solar System Dynamics
BODIES ORBITS EPHEMERIDES TOOLS PHYSICAL DATA DISCOVERY FAQ SITE MAP
IMPORTANT: The SSD Announcement email list is now available. Major changes are coming in the near future, including possible hostname and/or URL changes. To be notified of such changes, subscribe to this email list.

Please visit this page for more details.


JPL Small-Body Database Browser
Search: [ help ]  
(2007 CS5)
Classification: Aten [NEO]          SPK-ID: 3367721
Ephemeris | Orbit Diagram | Orbital Elements | Mission Design | Physical Parameters | Close-Approach Data ]

[ hide orbit diagram ]

For accurate long-term ephemerides, please instead use our Horizons system.This orbit viewer was implemented using two-body methods, and hence should not be used for determining accurate long-term trajectories (over several years or decades) or planetary encounter circumstances.


[ revert to old Java-based viewer ]

Orbital Elements at Epoch 2458600.5 (2019-Apr-27.0) TDB
Reference: JPL 9 (heliocentric ecliptic J2000)
 Element Value Uncertainty (1-sigma)   Units 
e .1727278376689307 0.00052971  
a .9803891460546401 3.0516e-05 au
q .8110486487825326 0.00054455 au
i .7512335923611535 0.0017784 deg
node 125.2628340919921 0.02247 deg
peri 261.4295172949098 0.013159 deg
M 299.2120664753015 0.13919 deg
tp 2458660.370246705418
(2019-Jun-25.87024671)
0.13435 TDB
period 354.5652494535459
0.97
0.016555
4.533e-05
d
yr
n 1.015327927806885 4.7405e-05 deg/d
Q 1.149729643326748 3.5787e-05 au
  Orbit Determination Parameters
   # obs. used (total)      19  
   data-arc span      16 days  
   first obs. used      2007-02-07  
   last obs. used      2007-02-23  
   planetary ephem.      DE431  
   SB-pert. ephem.      SB431-N16  
   condition code      6  
   norm. resid. RMS      .6012  
   source      ORB  
   producer      Otto Matic  
   solution date      2017-Apr-06 09:07:06  

Additional Information
 Earth MOID = .000678574 au 
 Jupiter MOID = 4.13561 au 
 T_jup = 6.162 
[ show covariance matrix ]

Ephemeris | Orbit Diagram | Orbital Elements | Mission Design | Physical Parameters | Close-Approach Data ]

Physical Parameter Table
Parameter Symbol Value Units Sigma Reference Notes
absolute magnitude H 24.6   n/a MPO116391  

